Simultaneous Nadir Overpasses (SNOs) Predictions

Prediction of SNOs between METOP-C and LANDSAT-8 Satellite Orbit:

Table of predicted SNOs for the next 14.0 days since TLE Epoch: 7/6/2024
Index Date (METOP-C) Time (METOP-C) Lat,Lon (METOP-C) SZA (METOP-C ) Date (LANDSAT-8) Time (LANDSAT-8) Lat,Lon (LANDSAT-8) SZA (LANDSAT-8 ) Distance(km) Time Diff (sec)
1 07/06/2024 14:55:22 -81.09, 175.50 119.52 07/06/2024 14:55:45 -81.09, 175.59 119.49 1.62 23
2 07/06/2024 15:46:01 81.10, -16.77 60.54 07/06/2024 15:45:11 81.10, -16.64 60.53 2.26 50
3 07/09/2024 10:29:45 -81.10,-117.92 119.18 07/09/2024 10:30:02 -81.10,-117.88 119.17 0.86 17
4 07/09/2024 11:20:24 81.11, 49.76 60.87 07/09/2024 11:19:28 81.11, 49.86 60.86 1.71 56
5 07/12/2024 06:04:08 -81.10, -51.44 118.81 07/12/2024 06:04:19 -81.09, -51.59 118.82 2.59 11
6 07/12/2024 06:54:46 81.12, 116.58 61.29 07/12/2024 06:53:44 81.12, 116.49 61.25 1.47 62
7 07/15/2024 01:38:30 -81.10, 14.94 118.40 07/15/2024 01:38:34 -81.09, 14.84 118.41 1.85 4
8 07/15/2024 02:29:08 81.12,-177.08 61.70 07/15/2024 02:27:59 81.12,-177.11 61.66 0.60 69
9 07/17/2024 20:22:12 81.08, -86.45 62.01 07/17/2024 20:23:23 81.07, -86.60 62.02 2.75 71



Historial Predications of SNOs between METOP-C and LANDSAT-8
